Skip Page Navigation
NASA JPL Caltech
NASA Logo - Jet Propulsion Laboratory + View the NASA Portal
+ Center for Near-Earth Object Studies
JPL Home Earth Solar System Stars & Galaxies Technology
JPL Solar System Dynamics
BODIES ORBITS EPHEMERIDES TOOLS PHYSICAL DATA DISCOVERY FAQ SITE MAP
JPL Small-Body Database Browser
Search: [ help ]  
332158 (2005 YC152)
Classification: Main-belt Asteroid          SPK-ID: 2332158
Ephemeris | Orbit Diagram | Orbital Elements | Mission Design | Physical Parameters | Discovery Circumstances ]

[ show orbit diagram ]
Orbital Elements at Epoch 2459000.5 (2020-May-31.0) TDB
Reference: JPL 19 (heliocentric ecliptic J2000)
 Element Value Uncertainty (1-sigma)   Units 
e .1978802498807399 3.9026e-08  
a 2.521829963826568 2.0116e-08 au
q 2.02280962042783 1.0383e-07 au
i 11.68950610545108 5.6747e-06 deg
node 98.8465607719595 2.1648e-05 deg
peri 281.3984330572899 2.7686e-05 deg
M 291.547277713778 1.8789e-05 deg
tp 2459278.638015221703
(2021-Mar-05.13801522)
7.7054e-05 TDB
period 1462.756806970216
4.00
1.7502e-05
4.792e-08
d
yr
n .2461106304783924 2.9447e-09 deg/d
Q 3.020850307225307 2.4096e-08 au
  Orbit Determination Parameters
   # obs. used (total)      274  
   data-arc span      6751 days (18.48 yr)  
   first obs. used      2002-02-03  
   last obs. used      2020-07-29  
   planetary ephem.      DE431  
   SB-pert. ephem.      SB431-N16  
   condition code      0  
   norm. resid. RMS      .60043  
   source      ORB  
   producer      Otto Matic  
   solution date      2020-Aug-25 21:12:14  

Additional Information
 Earth MOID = 1.06428 au 
 Jupiter MOID = 2.52965 au 
 T_jup = 3.400 
[ show covariance matrix ]

Ephemeris | Orbit Diagram | Orbital Elements | Mission Design | Physical Parameters | Discovery Circumstances ]

Physical Parameter Table
Parameter Symbol Value Units Sigma Reference Notes
absolute magnitude H 16.3   n/a MPO437417  

332158 (2005 YC152)          Discovered 2005-Dec-27 by Mt. Lemmon Survey at Mount Lemmon
Reference: 20120703/Numbers.arcLast Updated: 2012-07-09

Alternate Designations
 2005 YC152 = 2002 CV251 
Ephemeris | Orbit Diagram | Orbital Elements | Mission Design | Physical Parameters | Discovery Circumstances ]
ABOUT SSD CREDITS/AWARDS PRIVACY/COPYRIGHT GLOSSARY LINKS
FirstGov 2020-Oct-01 02:49 UT
(server date/time)  
NASA Home Page
Site Manager:   Ryan S. Park
Webmaster  Alan B. Chamberlin